Aérodrome :
LOGIN :

S'inscrire | Disclaimer

   EN    FR    IT 

 










Légende :    VFR   VFR Marginal   IFR   IFR Intensif   IFR Très Intensif
Visi : 
Plafond : 
>= 8 km
>= 3000ft
5 à 8 km
1000 à 3000 ft
1500m à 5 km
500 à 1000 ft
800 à 1500m
200 à 500 ft
< 800m
< 200 ft
Symboles :   Orages  Brouillard  Fortes neiges  Fortes précipitations  Vent > 20 kt
SIGMETs :   Divers  Orages  Givrage  Turbulence  Onde Orograph.  Cendres Volcan.







- Altitude de l'aérodrome : 302 ft
- Code IATA : CGN


EDDK - Cologne Bonn

DERNIER METAR :
  • 202250Z VRB02KT CAVOK 04/03 Q1031 NOSIG

METARs EXPIRÉS :
  • 202220Z 16002KT CAVOK 04/03 Q1031 NOSIG
  • 202150Z VRB01KT CAVOK 04/03 Q1031 NOSIG
  • 202120Z VRB01KT CAVOK 04/03 Q1031 NOSIG
  • 202050Z 06003KT 360V140 CAVOK 05/04 Q1031 NOSIG
  • 202020Z 07005KT 050V170 CAVOK 05/04 Q1031 NOSIG

TAF TAF EDDK
Valide du 20 à 18h jusqu'au 22 à 00h UTC


201700Z 2018/2124 33005KT CAVOK
BECMG 2018/2021 VRB02KT
TEMPO 2104/2109 1200 BCFG
PROB30
TEMPO 2105/2108 0300 FG OVC000
BECMG 2108/2110 13005KT
BECMG 2118/2121 VRB03KT
Pas de NOTAMs connus pour ce terrain.



MET'MAP, la Météo Aéronautique d'un coup d'oeil ! - Copyright ORBIFLY Décembre 2007 - Disclaimer

ORBIFLY MET'MAP TEAM :

Programmation & Développement : Alexandra Zaïnal
Conception & Développement : Baudouin d'Aumeries
Co-Programmation & Développement : Marc-Olivier Méhu
Soutien technique & logistique : Manuel Goepfert

Contact : metmap@orbifly.com




SOURCES & CREDITS :

   NOAA